METEOR 2-19

导读 | 星芒AI

METEOR-2-19 是俄罗斯一颗气象卫星,属于 METEOR-2 系列,于 1997 年发射。该卫星主要用于气象观测,提供云图、大气温度和湿度等数据,支持天气预报和环境监测。它搭载了多通道扫描辐射计和数据中继系统,能够实时传输气象信息。METEOR-2-19 在轨运行期间为俄罗斯及周边地区提供了重要的气象服务,提升了气象预测的准确性。

基本信息
目录编号:
20670
目录名称:
METEOR 2-19
国际标识:
1990-057A
轨道中心:
EARTH
卫星名称:
METEOR 2-19
卫星全名:
--
卫星状态:
在轨 (已飞行12953 天)
发射日期:
1990-06-27 UTC
国别 :
俄罗斯(独联体) (CIS)
星等 :
--
轨道信息
数据来源 国际轨道数据
星历时间: 2025-12-13T02:42:29+0800
15小时前
查看轨道信息
半长轴: 7324.754km
偏心率: 0.0014885
轨道倾角: 82.547°
近地点辐角 243.508°
升交点赤经 67.104°
平近点角 116.456°
近地点: 935.716km
远地点: 957.522km
周期: 103.980分钟
每日圈数: 13.848834
详细信息
使用方式:
暂无
2D轨道图
3D轨道图
轨道高度分析图
轨道倾角分析图
轨道综合分析图
查看轨道综合分析图